Location: 5810 Zion Rd, Cleves, OH 45002, USA
(39.1922°N, 84.7113°W)
Time: 00:17:32
(UTC-05:00)

Courier 1B Rocket - Pass Details

Date: 11 December 2019
Orbit: 920 x 1202 km, 28.2° (Epoch: 23 January)

Event Time Altitude Azimuth Distance (km) Brightness Sun altitude
Rises 05:35:17 0° 219° (SW) 3,916 - -24.9°
Exits shadow 05:37:12 - 212° (SSW) 3,363 7.6 -24.6°
Reaches altitude 10° 05:38:59 10° 203° (SSW) 2,905 7.3 -24.2°
Maximum altitude 05:43:42 19° 161° (SSE) 2,241 7.2 -23.3°
Drops below altitude 10° 05:48:13 10° 118° (ESE) 2,768 8.4 -22.5°
Sets 05:51:37 0° 101° (E) 3,670 9.6 -21.8°
